Location: Fiennes
(50.8274°N, 1.8253°E)
Time: 00:12:50
(UTC+00:00)

COSMOS 2406 - Pass Details

Date: 15 May 2026
Orbit: 846 x 858 km, 71.0° (Epoch: 9 June)

Event Time Altitude Azimuth Distance (km) Brightness Sun altitude
Rises 21:22:06 0° 218° (SW) 3,423 6.2 -13.0°
Reaches altitude 10° 21:24:34 10° 222° (SW) 2,490 5.5 -13.3°
Maximum altitude 21:30:16 64° 304° (WNW) 949 3.7 -13.8°
Drops below altitude 10° 21:35:59 10° 26° (NNE) 2,500 6.1 -14.3°
Sets 21:38:28 0° 29° (NNE) 3,439 6.8 -14.5°
